Location: Franzen
(48.6167°N, 15.3833°E)
Time: 09:34:37
(UTC+00:00)

Altair - Pass Details

Date: 06 August 2021
Orbit: 1501 x 1682 km, 47.2° (Epoch: 20 September)

Event Time Altitude Azimuth Distance (km) Brightness Sun altitude
Rises 23:50:51 0° 235° (SW) 4,780 - -23.9°
Reaches altitude 10° 23:54:01 10° 232° (SW) 3,772 - -23.8°
Exits shadow 23:58:54 34° 220° (SW) 2,354 8.0 -23.6°
Maximum altitude 00:03:18 61° 155° (SSE) 1,707 7.4 -23.4°
Drops below altitude 10° 00:12:20 10° 78° (ENE) 3,669 9.8 -23.0°
Sets 00:15:22 0° 75° (ENE) 4,643 10.5 -22.8°
